• In Russia
  • List of Countries
  • For 7 days
  • Water Temperature
  • Weather Map
  • Weather Widgets
  • user-avatar
    Login

    Hourly Weather Herāt

    Today, 19 January, Sunday

    Time Temperature Precipitation Wind Pressure Humidity
    00:00 +1°C° 0.1 mm 2 mps 681 mmHg 77%
    01:00 +2°C° 0.1 mm 1 mps 681 mmHg 80%
    02:00 +1°C° 0.4 mm 2 mps 680 mmHg 85%
    03:00 +1°C° 0.4 mm 2 mps 680 mmHg 90%
    04:00 +2°C° 0 mm 2 mps 680 mmHg 95%
    05:00 +2°C° 0.6 mm 2 mps 680 mmHg 96%
    06:00 +3°C° 0.6 mm 1 mps 680 mmHg 97%
    07:00 +3°C° 0.6 mm 1 mps 681 mmHg 98%
    08:00 +3°C° 0.6 mm 1 mps 681 mmHg 99%
    09:00 +3°C° 0.6 mm 1 mps 681 mmHg 99%
    10:00 +2°C° 0.6 mm 2 mps 681 mmHg 100%
    11:00 +3°C° 0.1 mm 1 mps 681 mmHg 99%
    12:00 +3°C° 0.1 mm 1 mps 680 mmHg 99%
    13:00 +4°C° 0.1 mm 1 mps 680 mmHg 99%
    14:00 +4°C° 0 mm 1 mps 680 mmHg 98%
    15:00 +4°C° 0 mm 1 mps 679 mmHg 96%
    16:00 +4°C° 0 mm 1 mps 679 mmHg 94%
    17:00 +3°C° 0 mm 0 mps 679 mmHg 91%
    18:00 +2°C° 0 mm 0 mps 680 mmHg 89%
    19:00 +2°C° 0 mm 0 mps 680 mmHg 87%
    20:00 +2°C° 0 mm 0 mps 680 mmHg 87%
    21:00 +1°C° 0 mm 0 mps 679 mmHg 87%
    22:00 +1°C° 0 mm 0 mps 679 mmHg 87%
    23:00 +1°C° 0 mm 0 mps 679 mmHg 88%

    Tomorrow, 20 January, Monday

    Time Temperature Precipitation Wind Pressure Humidity
    00:00 +2°C° 0 mm 1 mps 679 mmHg 89%
    01:00 +2°C° 0 mm 1 mps 679 mmHg 91%
    02:00 +2°C° 0 mm 1 mps 679 mmHg 91%
    03:00 +2°C° 0 mm 1 mps 679 mmHg 91%
    04:00 +1°C° 0 mm 0 mps 678 mmHg 91%
    05:00 +1°C° 0.2 mm 0 mps 679 mmHg 93%
    06:00 +1°C° 0.2 mm 0 mps 679 mmHg 95%
    07:00 +1°C° 0.2 mm 0 mps 679 mmHg 98%
    08:00 +1°C° 0.1 mm 0 mps 679 mmHg 98%
    09:00 +2°C° 0.1 mm 0 mps 680 mmHg 99%
    10:00 +2°C° 0.1 mm 0 mps 680 mmHg 99%
    11:00 +3°C° 0 mm 1 mps 680 mmHg 99%
    12:00 +3°C° 0 mm 1 mps 679 mmHg 99%
    13:00 +3°C° 0 mm 1 mps 679 mmHg 99%
    14:00 +3°C° 0 mm 1 mps 679 mmHg 99%
    15:00 +3°C° 0 mm 1 mps 680 mmHg 98%
    16:00 +3°C° 0 mm 1 mps 680 mmHg 97%
    17:00 +3°C° 0 mm 1 mps 680 mmHg 96%
    18:00 +2°C° 0 mm 1 mps 680 mmHg 94%
    19:00 +2°C° 0 mm 1 mps 681 mmHg 93%
    20:00 +1°C° 0 mm 1 mps 681 mmHg 92%
    21:00 +1°C° 0 mm 1 mps 681 mmHg 91%
    22:00 +1°C° 0 mm 1 mps 681 mmHg 90%
    23:00 +1°C° 0 mm 1 mps 681 mmHg 90%

    Day after tomorrow, 21 January, Tuesday

    Time Temperature Precipitation Wind Pressure Humidity
    00:00 0°C° 0 mm 1 mps 680 mmHg 90%
    01:00 0°C° 0 mm 1 mps 680 mmHg 89%
    02:00 0°C° 0 mm 1 mps 680 mmHg 89%
    03:00 0°C° 0 mm 1 mps 680 mmHg 89%
    04:00 0°C° 0 mm 1 mps 680 mmHg 88%
    05:00 0°C° 0 mm 1 mps 680 mmHg 88%
    06:00 -1°C° 0 mm 0 mps 680 mmHg 88%
    07:00 -1°C° 0 mm 0 mps 681 mmHg 87%
    08:00 -1°C° 0 mm 0 mps 681 mmHg 87%
    09:00 0°C° 0 mm 0 mps 681 mmHg 87%
    10:00 +1°C° 0 mm 0 mps 681 mmHg 86%
    11:00 +1°C° 0 mm 0 mps 681 mmHg 88%
    12:00 +1°C° 0 mm 0 mps 681 mmHg 90%
    13:00 +1°C° 0 mm 0 mps 681 mmHg 92%
    14:00 +1°C° 0 mm 0 mps 681 mmHg 92%
    15:00 +1°C° 0 mm 0 mps 681 mmHg 92%
    16:00 +1°C° 0 mm 0 mps 680 mmHg 92%
    17:00 0°C° 0 mm 0 mps 681 mmHg 90%
    18:00 +1°C° 0 mm 1 mps 682 mmHg 89%
    19:00 0°C° 0 mm 1 mps 682 mmHg 88%
    20:00 0°C° 0 mm 1 mps 682 mmHg 87%
    21:00 0°C° 0 mm 1 mps 683 mmHg 86%
    22:00 0°C° 0 mm 1 mps 683 mmHg 86%
    23:00 0°C° 0 mm 1 mps 683 mmHg 85%

    22 January, Wednesday

    Time Temperature Precipitation Wind Pressure Humidity
    00:00 0°C° 0 mm 1 mps 683 mmHg 85%
    01:00 0°C° 0 mm 1 mps 683 mmHg 85%
    02:00 0°C° 0 mm 1 mps 683 mmHg 83%
    03:00 +1°C° 0 mm 1 mps 683 mmHg 81%
    04:00 -1°C° 0 mm 2 mps 683 mmHg 80%
    05:00 -1°C° 0 mm 2 mps 683 mmHg 77%
    06:00 -1°C° 0 mm 2 mps 684 mmHg 75%
    07:00 +1°C° 0 mm 1 mps 684 mmHg 73%
    08:00 +1°C° 0 mm 2 mps 684 mmHg 74%
    09:00 +2°C° 0 mm 2 mps 685 mmHg 75%
    10:00 +3°C° 0 mm 2 mps 685 mmHg 76%
    11:00 +4°C° 0 mm 1 mps 685 mmHg 78%
    12:00 +5°C° 0 mm 1 mps 684 mmHg 80%
    13:00 +5°C° 0 mm 1 mps 683 mmHg 82%
    14:00 +5°C° 0 mm 1 mps 683 mmHg 83%
    15:00 +5°C° 0 mm 1 mps 683 mmHg 84%
    16:00 +4°C° 0 mm 1 mps 682 mmHg 85%
    17:00 +3°C° 0 mm 2 mps 683 mmHg 82%
    18:00 +3°C° 0 mm 2 mps 683 mmHg 79%
    19:00 +3°C° 0 mm 2 mps 684 mmHg 75%
    20:00 +3°C° 0 mm 2 mps 684 mmHg 74%
    21:00 +4°C° 0 mm 1 mps 684 mmHg 73%
    22:00 +4°C° 0 mm 1 mps 684 mmHg 73%
    23:00 +3°C° 0 mm 2 mps 683 mmHg 73%

    23 January, Thursday

    Time Temperature Precipitation Wind Pressure Humidity
    00:00 +2°C° 0 mm 3 mps 683 mmHg 73%
    01:00 +2°C° 0 mm 3 mps 683 mmHg 73%
    02:00 +2°C° 0 mm 3 mps 682 mmHg 73%
    03:00 +2°C° 0 mm 3 mps 682 mmHg 73%
    04:00 +3°C° 0 mm 4 mps 681 mmHg 73%
    05:00 +3°C° 0 mm 4 mps 681 mmHg 71%
    06:00 +3°C° 0 mm 4 mps 681 mmHg 70%
    07:00 +3°C° 0 mm 4 mps 681 mmHg 68%
    08:00 +3°C° 0 mm 5 mps 681 mmHg 71%
    09:00 +3°C° 0 mm 5 mps 681 mmHg 73%
    10:00 +4°C° 0 mm 6 mps 681 mmHg 76%
    11:00 +6°C° 0.1 mm 5 mps 680 mmHg 77%
    12:00 +6°C° 0.1 mm 5 mps 679 mmHg 77%
    13:00 +7°C° 0.1 mm 5 mps 679 mmHg 78%
    14:00 +7°C° 0 mm 5 mps 678 mmHg 77%
    15:00 +6°C° 0 mm 4 mps 677 mmHg 75%
    16:00 +6°C° 0 mm 4 mps 677 mmHg 73%
    17:00 +6°C° 0 mm 4 mps 677 mmHg 70%
    18:00 +6°C° 0 mm 4 mps 677 mmHg 67%
    19:00 +6°C° 0 mm 4 mps 677 mmHg 65%
    20:00 +6°C° 0.1 mm 4 mps 677 mmHg 67%
    21:00 +6°C° 0.1 mm 4 mps 677 mmHg 68%
    22:00 +6°C° 0.1 mm 4 mps 677 mmHg 70%
    23:00 +5°C° 1.9 mm 4 mps 677 mmHg 78%

    24 January, Friday

    Time Temperature Precipitation Wind Pressure Humidity
    00:00 +5°C° 1.9 mm 4 mps 676 mmHg 86%
    01:00 +4°C° 1.9 mm 4 mps 676 mmHg 95%
    02:00 +3°C° 0.4 mm 5 mps 676 mmHg 91%
    03:00 +3°C° 0.4 mm 7 mps 675 mmHg 87%
    04:00 +4°C° 0.4 mm 8 mps 675 mmHg 83%
    05:00 +4°C° 0 mm 7 mps 676 mmHg 82%
    06:00 +4°C° 0 mm 6 mps 676 mmHg 82%
    07:00 +5°C° 0 mm 5 mps 676 mmHg 82%
    08:00 +5°C° 0.3 mm 4 mps 677 mmHg 84%
    09:00 +5°C° 0.3 mm 3 mps 677 mmHg 85%
    10:00 +6°C° 0.3 mm 2 mps 677 mmHg 87%
    11:00 +7°C° 0.2 mm 2 mps 677 mmHg 83%
    12:00 +8°C° 0.2 mm 3 mps 677 mmHg 78%
    13:00 +9°C° 0.2 mm 3 mps 677 mmHg 74%
    14:00 +9°C° 0.1 mm 3 mps 677 mmHg 72%
    15:00 +9°C° 0.1 mm 3 mps 678 mmHg 70%
    16:00 +9°C° 0.1 mm 2 mps 678 mmHg 68%
    17:00 +8°C° 0 mm 2 mps 678 mmHg 70%
    18:00 +7°C° 0 mm 2 mps 678 mmHg 73%
    19:00 +7°C° 0 mm 1 mps 679 mmHg 75%
    20:00 +7°C° 0 mm 1 mps 679 mmHg 74%
    21:00 +5°C° 0 mm 2 mps 679 mmHg 73%
    22:00 +5°C° 0 mm 2 mps 680 mmHg 73%
    23:00 +5°C° 0 mm 2 mps 680 mmHg 72%
    Show more